Location: Unspecified
(40.7945°N, 0.0000°E)
Time: 16:05:57
(UTC+00:00)

Courier 1B - Pass Details

Date: 21 January 2021
Orbit: 962 x 1209 km, 28.3° (Epoch: 07 March)

Event Time Altitude Azimuth Distance (km) Brightness Sun altitude
Rises 03:26:56 0° 252° (WSW) 3,632 - -43.6°
Reaches altitude 10° 03:30:00 10° 240° (WSW) 2,690 - -43.1°
Maximum altitude 03:35:10 26° 187° (S) 1,830 - -42.1°
Exits shadow 03:39:22 14° 140° (SE) 2,459 9.8 -41.3°
Drops below altitude 10° 03:40:28 10° 134° (SE) 2,759 10.2 -41.1°
Sets 03:43:39 0° 121° (ESE) 3,745 11.1 -40.5°
